Location: Newark
(35.8833°N, 14.5000°E)
Time: 07:28:24
(UTC+00:00)

Explorer 7 - Visible Passes

Search period start: 15 November 2019 00:00
Search period end: 25 November 2019 00:00
Orbit: 485 x 680 km, 50.3° (Epoch: 14 November)

Date Brightness Start Highest point End Pass type
(mag) Time Alt. Az. Time Alt. Az. Time Alt. Az.
15 Nov 9.3 03:53:27 11° N 03:53:40 11° N 03:54:36 10° NNE visible
16 Nov 9.2 03:58:18 11° N 03:59:04 12° N 04:00:31 10° NNE visible
17 Nov 9.1 04:03:09 12° N 04:04:24 14° NNE 04:06:31 10° NE visible
18 Nov 8.9 04:08:02 14° N 04:09:43 17° NNE 04:12:24 10° ENE visible
19 Nov 8.5 04:12:57 16° NNW 04:14:57 23° NNE 04:18:08 10° E visible
20 Nov 8.0 04:17:55 20° NNW 04:20:07 34° NNE 04:23:41 10° E visible
21 Nov 7.2 04:22:56 23° NW 04:25:12 54° NE 04:28:59 10° ESE visible
22 Nov 9.9 02:51:42 12° ENE 02:51:42 12° ENE 02:52:11 10° ENE visible
22 Nov 6.6 04:28:02 27° NW 04:30:10 87° SW 04:34:02 10° SE visible
23 Nov 9.6 02:56:51 15° ENE 02:56:51 15° ENE 02:57:50 10° E visible
23 Nov 7.1 04:33:11 26° WNW 04:35:05 47° SW 04:38:47 10° SSE visible
24 Nov 9.4 03:02:05 18° E 03:02:05 18° E 03:03:17 10° ESE visible
24 Nov 7.9 04:38:26 21° W 04:39:52 26° SW 04:43:08 10° S visible
